User: anonymous   Login
Location: NJAA Observatory
(40.6819°N, 74.8979°W)
Time: 19:42:03
(UTC-04:00)
Language:

Cosmos 220 Rocket - Orbit

View from above orbital plane
View from above orbital plane
View from above satellite
View from above satellite

Ground track
Ground track

The orbit data is extracted from the following two-line orbital elements,

1 03230U 68040B   14304.14894365  .00003208  00000-0  34849-3 0  3985
2 03230 074.0395 002.7268 0031760 212.4201 147.5029 14.88204771492579
Epoch (UTC): 31 October 2014 03:34:28
Eccentricity: 0.0031760
inclination: 74.0395°
perigee height: 581 km
apogee height: 626 km
right ascension of ascending node: 2.7268°
argument of perigee: 212.4201°
revolutions per day: 14.88204771
mean anomaly at epoch: 147.5029°
orbit number at epoch: 49257

The dashed part of the orbit path shows where the satellite is in the earth's shadow,  

DLR